Weather History for KIXA - November, 2012

Change the Weather History Date:

Thursday, November 1, 2012

  Actual Average (KEMV) Record (KEMV)
Temperature  
Mean Temperature 46 °F -  
Max Temperature 57 °F 67 °F 82 °F (2003)
Min Temperature 35 °F 42 °F 32 °F (2005)
Degree Days  
Heating Degree Days 19    
Moisture  
Dew Point 36 °F    
Average Humidity 70    
Maximum Humidity 100    
Minimum Humidity 47    
Precipitation  
Precipitation 0.00 in - - ()
Sea Level Pressure  
Sea Level Pressure 29.75 in    
Wind  
Wind Speed 6 mph (WSW)    
Max Wind Speed 14 mph    
Max Gust Speed 20 mph    
Visibility 10 miles    
Events      
Averages and records for this station are not official NWS values.
T = Trace of Precipitation, MM = Missing Value Source: NWS Daily Summary

Daily Weather History Graph

Daily Weather History Graph

Search for Another Location

Airport or City:

Trip Planner

Search our weather history database for the weather conditions in past years. The results will help you decide how hot, cold, wet, or windy it might be!

Date:

Astronomy

Nov. 01, 2012 Rise Set
Actual Time 7:34 AM EDT 6:13 PM EDT
Civil Twilight 7:07 AM EDT 6:40 PM EDT
Nautical Twilight 6:36 AM EDT 7:10 PM EDT
Astronomical Twilight 6:06 AM EDT 7:40 PM EDT
Moon 8:12 PM EDT (11/1) 10:01 AM EDT (11/1)
Length of Visible Light 11h 32m
Length of Day
10h 39m
Waning Gibbous, 93% of the Moon is Illuminated
Nov 1
Waning Gibbous
Nov 6
Last Quarter
Nov 13
New
Nov 20
First Quarter
Nov 28
Full

Hourly Weather History & Observations

Time (EDT) Temp. Windchill Dew Point Humidity Pressure Visibility Wind Dir Wind Speed Gust Speed Precip Events Conditions
12:15 AM 44.6 °F 42.2 °F 37.4 °F 76% 29.73 in 10.0 mi SSW 4.6 mph - N/A   Overcast
12:35 AM 44.6 °F 42.2 °F 37.4 °F 76% 29.73 in 10.0 mi SW 4.6 mph - N/A   Overcast
12:55 AM 44.6 °F 42.2 °F 37.4 °F 76% 29.73 in 10.0 mi SW 4.6 mph - N/A   Overcast
1:15 AM 44.6 °F 40.7 °F 37.4 °F 76% 29.73 in 10.0 mi SW 6.9 mph - N/A   Overcast
1:35 AM 44.6 °F 41.4 °F 37.4 °F 76% 29.74 in 10.0 mi SW 5.8 mph - N/A   Overcast
1:55 AM 44.6 °F 40.7 °F 37.4 °F 76% 29.73 in 10.0 mi SW 6.9 mph - N/A   Overcast
2:15 AM 42.8 °F 39.3 °F 37.4 °F 81% 29.73 in 10.0 mi SW 5.8 mph - N/A   Scattered Clouds
2:35 AM 41.0 °F 37.1 °F 37.4 °F 87% 29.73 in 10.0 mi SW 5.8 mph - N/A   Clear
2:55 AM 41.0 °F 36.4 °F 35.6 °F 81% 29.73 in 10.0 mi WSW 6.9 mph - N/A   Clear
3:15 AM 41.0 °F 37.1 °F 35.6 °F 81% 29.73 in 10.0 mi SW 5.8 mph - N/A   Clear
3:35 AM 41.0 °F 37.1 °F 35.6 °F 81% 29.73 in 10.0 mi SW 5.8 mph - N/A   Clear
3:55 AM 37.4 °F 32.8 °F 35.6 °F 93% 29.73 in 10.0 mi SW 5.8 mph - N/A   Clear
4:15 AM 37.4 °F 33.8 °F 35.6 °F 93% 29.72 in 10.0 mi SW 4.6 mph - N/A   Clear
4:35 AM 37.4 °F 32.8 °F 33.8 °F 87% 29.72 in 10.0 mi SW 5.8 mph - N/A   Clear
4:55 AM 37.4 °F 33.8 °F 33.8 °F 87% 29.72 in 10.0 mi SW 4.6 mph - N/A   Clear
5:15 AM 37.4 °F 33.8 °F 33.8 °F 87% 29.72 in 10.0 mi SW 4.6 mph - N/A   Clear
5:35 AM 35.6 °F 31.7 °F 33.8 °F 93% 29.72 in 10.0 mi SW 4.6 mph - N/A   Clear
5:55 AM 35.6 °F 31.7 °F 33.8 °F 93% 29.72 in 10.0 mi SSW 4.6 mph - N/A   Clear
6:15 AM 35.6 °F 32.8 °F 35.6 °F 100% 29.72 in 10.0 mi SW 3.5 mph - N/A   Clear
6:35 AM 35.6 °F 32.8 °F 33.8 °F 93% 29.72 in 10.0 mi SSW 3.5 mph - N/A   Clear
6:55 AM 35.6 °F 31.7 °F 33.8 °F 93% 29.73 in 10.0 mi SW 4.6 mph - N/A   Clear
7:15 AM 35.6 °F 30.7 °F 33.8 °F 93% 29.74 in 10.0 mi SW 5.8 mph - N/A   Clear
7:35 AM 35.6 °F 30.7 °F 33.8 °F 93% 29.74 in 10.0 mi SW 5.8 mph - N/A   Clear
7:55 AM 35.6 °F 31.7 °F 35.6 °F 100% 29.74 in 10.0 mi SW 4.6 mph - N/A   Scattered Clouds
8:15 AM 41.0 °F 38.0 °F 37.4 °F 87% 29.75 in 10.0 mi SW 4.6 mph - N/A   Scattered Clouds
8:35 AM 42.8 °F 38.6 °F 37.4 °F 81% 29.76 in 10.0 mi SW 6.9 mph - N/A   Scattered Clouds
8:55 AM 42.8 °F 38.0 °F 37.4 °F 81% 29.76 in 10.0 mi WSW 8.1 mph - N/A   Mostly Cloudy
9:15 AM 46.4 °F 41.9 °F 37.4 °F 71% 29.77 in 10.0 mi West 9.2 mph - N/A   Overcast
9:35 AM 48.2 °F - 37.4 °F 66% 29.77 in 10.0 mi West 6.9 mph - N/A   Overcast
9:55 AM 48.2 °F - 35.6 °F 62% 29.77 in 10.0 mi WSW 9.2 mph - N/A   Overcast
10:15 AM 48.2 °F - 35.6 °F 62% 29.77 in 10.0 mi West 11.5 mph 16.1 mph N/A   Overcast
10:35 AM 50.0 °F - 35.6 °F 58% 29.77 in 10.0 mi West 10.4 mph - N/A   Overcast
10:55 AM 50.0 °F - 35.6 °F 58% 29.77 in 10.0 mi West 8.1 mph - N/A   Overcast
11:15 AM 51.8 °F - 37.4 °F 58% 29.77 in 10.0 mi West 11.5 mph - N/A   Overcast
11:35 AM 51.8 °F - 35.6 °F 54% 29.77 in 10.0 mi West 9.2 mph 19.6 mph N/A   Mostly Cloudy
11:55 AM 53.6 °F - 35.6 °F 51% 29.77 in 10.0 mi WSW 12.7 mph - N/A   Scattered Clouds
12:15 PM 53.6 °F - 37.4 °F 54% 29.76 in 10.0 mi WSW 10.4 mph 18.4 mph N/A   Scattered Clouds
12:35 PM 53.6 °F - 37.4 °F 54% 29.75 in 10.0 mi West 12.7 mph 16.1 mph N/A   Scattered Clouds
12:55 PM 57.2 °F - 37.4 °F 48% 29.74 in 10.0 mi WNW 8.1 mph - N/A   Mostly Cloudy
1:15 PM 55.4 °F - 37.4 °F 51% 29.73 in 10.0 mi West 8.1 mph 18.4 mph N/A   Mostly Cloudy
1:35 PM 55.4 °F - 35.6 °F 47% 29.73 in 10.0 mi West 8.1 mph 18.4 mph N/A   Mostly Cloudy
1:55 PM 55.4 °F - 35.6 °F 47% 29.72 in 10.0 mi West 6.9 mph 10.4 mph N/A   Overcast
2:15 PM 55.4 °F - 35.6 °F 47% 29.71 in 10.0 mi West 9.2 mph - N/A   Overcast
2:35 PM 53.6 °F - 35.6 °F 51% 29.71 in 10.0 mi WNW 9.2 mph 16.1 mph N/A   Overcast
2:55 PM 55.4 °F - 35.6 °F 47% 29.71 in 10.0 mi WNW 10.4 mph - N/A   Overcast
3:15 PM 55.4 °F - 35.6 °F 47% 29.71 in 10.0 mi West 11.5 mph 18.4 mph N/A   Overcast
3:35 PM 53.6 °F - 35.6 °F 51% 29.71 in 10.0 mi West 13.8 mph 19.6 mph N/A   Overcast
3:55 PM 53.6 °F - 35.6 °F 51% 29.72 in 10.0 mi WNW 11.5 mph - N/A   Overcast
4:15 PM 53.6 °F - 35.6 °F 51% 29.72 in 10.0 mi West 6.9 mph - N/A   Overcast
4:35 PM 53.6 °F - 35.6 °F 51% 29.73 in 10.0 mi West 9.2 mph - N/A   Overcast
4:55 PM 53.6 °F - 35.6 °F 51% 29.73 in 10.0 mi WNW 5.8 mph - N/A   Overcast
5:15 PM 53.6 °F - 35.6 °F 51% 29.73 in 10.0 mi WNW 5.8 mph - N/A   Overcast
5:35 PM 53.6 °F - 35.6 °F 51% 29.74 in 10.0 mi WNW 4.6 mph - N/A   Overcast
5:55 PM 51.8 °F - 37.4 °F 58% 29.74 in 10.0 mi WNW 4.6 mph - N/A   Overcast
6:35 PM 50.0 °F - 37.4 °F 62% 29.75 in 10.0 mi West 3.5 mph - N/A   Overcast
6:55 PM 50.0 °F - 37.4 °F 62% 29.76 in 10.0 mi Calm Calm - N/A   Overcast
7:15 PM 48.2 °F - 39.2 °F 71% 29.76 in 10.0 mi WSW 3.5 mph - N/A   Mostly Cloudy
7:35 PM 48.2 °F - 37.4 °F 66% 29.77 in 10.0 mi West 5.8 mph - N/A   Scattered Clouds
7:55 PM 48.2 °F - 37.4 °F 66% 29.78 in 10.0 mi West 4.6 mph - N/A   Clear
8:15 PM 46.4 °F 43.5 °F 37.4 °F 71% 29.78 in 10.0 mi West 5.8 mph - N/A   Clear
8:35 PM 46.4 °F 43.5 °F 35.6 °F 66% 29.79 in 10.0 mi West 5.8 mph - N/A   Clear
8:55 PM 46.4 °F 41.5 °F 35.6 °F 66% 29.78 in 10.0 mi NW 10.4 mph - N/A   Clear
9:15 PM 48.2 °F - 35.6 °F 62% 29.79 in 10.0 mi West 5.8 mph - N/A   Clear
9:35 PM 46.4 °F 45.2 °F 35.6 °F 66% 29.80 in 10.0 mi West 3.5 mph - N/A   Clear
9:55 PM 46.4 °F 45.2 °F 35.6 °F 66% 29.80 in 10.0 mi West 3.5 mph - N/A   Clear
10:15 PM 42.8 °F - 35.6 °F 76% 29.80 in 10.0 mi Calm Calm - N/A   Clear
10:35 PM 41.0 °F - 35.6 °F 81% 29.81 in 10.0 mi Calm Calm - N/A   Clear
10:55 PM 42.8 °F 41.1 °F 35.6 °F 76% 29.81 in 10.0 mi West 3.5 mph - N/A   Clear
11:15 PM 42.8 °F 39.3 °F 35.6 °F 76% 29.82 in 10.0 mi West 5.8 mph - N/A   Clear
11:35 PM 42.8 °F 41.1 °F 35.6 °F 76% 29.81 in 10.0 mi West 3.5 mph - N/A   Clear
11:55 PM 42.8 °F 40.1 °F 35.6 °F 76% 29.82 in 10.0 mi WSW 4.6 mph - N/A   Clear